Alexandria, Egypt

7:55 AM EET on July 21, 2017 (GMT +0200)
Alexandria

Weather History for 62318 - July, 2013

Change the Weather History Date:

Tuesday, July 23, 2013

  Actual Average Record
Temperature  
Mean Temperature 80 °F -  
Max Temperature 86 °F 85 °F - ()
Min Temperature 73 °F 74 °F - ()
Cooling Degree Days 14    
Growing Degree Days 30 (Base 50)    
Moisture  
Dew Point 70 °F    
Average Humidity 74    
Maximum Humidity 89    
Minimum Humidity 52    
Precipitation  
Precipitation 0.00 in 0.00 in - ()
Sea Level Pressure  
Sea Level Pressure 29.72 in    
Wind  
Wind Speed 10 mph ()    
Max Wind Speed 15 mph    
Max Gust Speed -    
Visibility 6.2 miles    
Events      
T = Trace of Precipitation, MM = Missing Value Source: Averaged Metar Reports

Daily Weather History Graph

Daily Weather History Graph

Search for Another Location

Airport or City:

Trip Planner

Search our weather history database for the weather conditions in past years. The results will help you decide how hot, cold, wet, or windy it might be!

Date:

Astronomy

Jul. 23, 2013 Rise Set
Actual Time 5:11 AM EET 7:01 PM EET
Civil Twilight 4:44 AM EET 7:28 PM EET
Nautical Twilight 4:11 AM EET 8:00 PM EET
Astronomical Twilight 3:37 AM EET 8:35 PM EET
Moon 7:25 PM EET (7/23) 5:49 AM EET (7/23)
Length of Visible Light 14h 44m
Length of Day
13h 50m
Full, 99% of the Moon is Illuminated
Jul 23
Full
Jul 29
Last Quarter
Aug 6
New
Aug 14
First Quarter
Aug 21
Full

Hourly Weather History & Observations

Time (EET) Temp. Heat Index Dew Point Humidity Pressure Visibility Wind Dir Wind Speed Gust Speed Precip Events Conditions
12:00 AM 75.2 °F - 71.6 °F 89% 29.71 in 6.2 mi NW 11.5 mph - N/A   Scattered Clouds
1:00 AM 75.2 °F - 68.0 °F 78% 29.68 in 6.2 mi NW 12.7 mph - N/A   Scattered Clouds
2:00 AM 76 °F - 71 °F 78% 29.69 in 6 mi NW 9.2 mph - -   Partly Cloudy
2:00 AM 75.2 °F - 69.8 °F 83% 29.68 in 6.2 mi NW 9.2 mph - N/A   Scattered Clouds
3:00 AM 75.2 °F - 71.6 °F 89% 29.68 in 6.2 mi NW 10.4 mph - N/A   Scattered Clouds
4:00 AM 75.2 °F - 69.8 °F 83% 29.68 in 6.2 mi NW 9.2 mph - N/A   Scattered Clouds
5:00 AM 75.2 °F - 68.0 °F 78% 29.68 in 6.2 mi NNW 11.5 mph - N/A   Scattered Clouds
6:00 AM 75.2 °F - 69.8 °F 83% 29.68 in 6.2 mi WNW 9.2 mph - N/A   Scattered Clouds
7:00 AM 77.0 °F - 69.8 °F 78% 29.71 in 6.2 mi WNW 8.1 mph - N/A   Scattered Clouds
8:00 AM 80 °F - 69 °F 62% 29.72 in 6 mi NNW 11.5 mph - -   Partly Cloudy
8:00 AM 78.8 °F - 69.8 °F 74% 29.71 in 6.2 mi NNW 11.5 mph - N/A   Scattered Clouds
9:00 AM 80.6 °F 83.9 °F 69.8 °F 70% 29.71 in 6.2 mi NW 13.8 mph - N/A   Scattered Clouds
10:00 AM 82.4 °F 86.3 °F 69.8 °F 66% 29.74 in 6.2 mi NW 13.8 mph - N/A   Scattered Clouds
11:00 AM 84.2 °F 89.6 °F 71.6 °F 66% 29.74 in 6.2 mi NW 10.4 mph - N/A   Scattered Clouds
12:00 PM 82.4 °F 87.2 °F 71.6 °F 70% 29.74 in 6.2 mi NW 9.2 mph - N/A   Scattered Clouds
1:00 PM 82.4 °F 87.2 °F 71.6 °F 70% 29.74 in 6.2 mi NW 11.5 mph - N/A   Scattered Clouds
2:00 PM 86 °F - 71 °F 52% 29.73 in 6 mi WNW 11.5 mph - -  
2:00 PM 86.0 °F 91.8 °F 71.6 °F 62% 29.71 in - WNW 11.5 mph - N/A   Clear
3:00 PM 84.2 °F 89.6 °F 71.6 °F 66% 29.74 in - WNW 15.0 mph - N/A   Clear
4:00 PM 84.2 °F 89.6 °F 71.6 °F 66% 29.71 in - NW 15.0 mph - N/A   Clear
5:00 PM 82.4 °F 87.2 °F 71.6 °F 70% 29.71 in 6.2 mi NW 12.7 mph - N/A   Scattered Clouds
5:19 PM 82.4 °F 87.2 °F 71.6 °F 70% 29.71 in 6.2 mi NW 12.7 mph - N/A   Scattered Clouds
6:00 PM 80.6 °F 84.6 °F 71.6 °F 74% 29.74 in 6.2 mi NW 11.5 mph - N/A   Scattered Clouds
7:00 PM 78.8 °F - 71.6 °F 78% 29.74 in 6.2 mi NW 9.2 mph - N/A   Scattered Clouds
8:00 PM 77 °F - 70 °F 74% 29.75 in 6 mi NW 9.2 mph - -   Partly Cloudy
8:00 PM 77.0 °F - 69.8 °F 78% 29.74 in 6.2 mi NW 9.2 mph - N/A   Scattered Clouds
9:00 PM 77.0 °F - 69.8 °F 78% 29.74 in 6.2 mi NNW 9.2 mph - N/A   Scattered Clouds
10:00 PM 77.0 °F - 69.8 °F 78% 29.77 in 6.2 mi NW 10.4 mph - N/A   Scattered Clouds
11:00 PM 77.0 °F - 69.8 °F 78% 29.77 in 6.2 mi NW 9.2 mph - N/A   Scattered Clouds